Retour au catalogue

CZ-3C DEB

LostGTO
NORAD 39350·DEBRIS·🇨🇳 China

Lancé Oct 31, 2010 depuis Xichang Satellite Launch Center

Loading…

TLE

PériméSource: Space-Track

Époque: Jul 31, 2026, 11:37 UTC

1 39350U 10057Q   26212.48422147 -.00000120  00000-0  58210-3 0  9991
2 39350  20.3839  28.4699 7208937 295.7677  10.7226  2.22922984100968

Suivez CZ-3C DEB en temps réel avec AllMySat

Download on the App Store